TimeCST,TemperatureF,Dew PointF,Humidity,Sea Level PressureIn,VisibilityMPH,Wind Direction,Wind SpeedMPH,Gust SpeedMPH,PrecipitationIn,Events,Conditions,WindDirDegrees,DateUTC
12:15 AM,18.3,16.2,91,30.09,10.0,Calm,Calm,-,N/A,,Clear,0,2014-01-16 06:15:00
12:35 AM,18.5,18.1,98,30.08,10.0,Calm,Calm,-,N/A,,Clear,0,2014-01-16 06:35:00
12:55 AM,18.3,18.3,100,30.08,10.0,Calm,Calm,-,N/A,,Clear,0,2014-01-16 06:55:00
1:15 AM,18.3,18.3,100,30.08,10.0,Calm,Calm,-,N/A,,Clear,0,2014-01-16 07:15:00
1:35 AM,18.1,18.1,100,30.08,10.0,Calm,Calm,-,N/A,,Clear,0,2014-01-16 07:35:00
1:55 AM,17.8,17.8,100,30.07,10.0,Calm,Calm,-,N/A,,Clear,0,2014-01-16 07:55:00
2:15 AM,17.6,17.4,99,30.05,10.0,SE,3.5,-,N/A,,Clear,130,2014-01-16 08:15:00
2:35 AM,18.0,17.1,96,30.06,10.0,Calm,Calm,-,N/A,,Clear,0,2014-01-16 08:35:00
2:55 AM,18.1,16.3,93,30.06,10.0,Calm,Calm,-,N/A,,Clear,0,2014-01-16 08:55:00
3:15 AM,18.3,16.3,92,30.06,10.0,Calm,Calm,-,N/A,,Clear,0,2014-01-16 09:15:00
3:35 AM,18.1,16.5,93,30.05,10.0,Calm,Calm,-,N/A,,Clear,0,2014-01-16 09:35:00
3:55 AM,18.5,16.9,93,30.05,10.0,Calm,Calm,-,N/A,,Clear,0,2014-01-16 09:55:00
4:15 AM,19.4,17.1,91,30.04,10.0,South,3.5,-,N/A,,Clear,190,2014-01-16 10:15:00
4:35 AM,19.9,17.2,89,30.04,10.0,Calm,Calm,-,N/A,,Clear,0,2014-01-16 10:35:00
4:55 AM,19.8,16.7,88,30.03,10.0,South,3.5,-,N/A,,Clear,180,2014-01-16 10:55:00
5:15 AM,19.9,16.7,87,30.03,10.0,South,3.5,-,N/A,,Clear,180,2014-01-16 11:15:00
5:35 AM,20.1,16.7,87,30.02,10.0,SSW,3.5,-,N/A,,Clear,200,2014-01-16 11:35:00
5:55 AM,20.1,16.7,87,30.02,10.0,South,3.5,-,N/A,,Clear,180,2014-01-16 11:55:00
6:15 AM,20.3,16.9,87,30.01,10.0,South,3.5,-,N/A,,Clear,190,2014-01-16 12:15:00
6:35 AM,20.7,17.4,87,30.01,10.0,South,4.6,-,N/A,,Clear,180,2014-01-16 12:35:00
6:55 AM,21.2,18.1,88,29.99,10.0,South,6.9,-,N/A,,Mostly Cloudy,170,2014-01-16 12:55:00
7:15 AM,22.6,19.0,86,30.00,10.0,South,5.8,-,N/A,,Overcast,180,2014-01-16 13:15:00
7:35 AM,23.5,19.2,84,30.00,10.0,South,8.1,-,N/A,,Overcast,180,2014-01-16 13:35:00
7:55 AM,23.9,19.2,82,30.00,10.0,South,10.4,-,N/A,,Overcast,190,2014-01-16 13:55:00
8:15 AM,24.8,19.0,79,30.01,10.0,SSW,9.2,-,N/A,,Overcast,200,2014-01-16 14:15:00
8:35 AM,25.7,19.2,76,30.01,10.0,SSW,10.4,17.3,N/A,,Overcast,200,2014-01-16 14:35:00
8:55 AM,26.1,19.2,75,30.00,10.0,South,12.7,18.4,N/A,,Mostly Cloudy,180,2014-01-16 14:55:00
9:15 AM,26.6,19.0,73,29.99,10.0,South,11.5,18.4,N/A,,Mostly Cloudy,190,2014-01-16 15:15:00
9:35 AM,27.3,18.9,70,29.99,10.0,SSW,11.5,-,N/A,,Overcast,200,2014-01-16 15:35:00
9:55 AM,28.4,18.9,67,29.99,10.0,SW,10.4,18.4,N/A,,Overcast,220,2014-01-16 15:55:00
10:15 AM,29.1,18.1,64,29.97,10.0,SSW,11.5,-,N/A,,Overcast,200,2014-01-16 16:15:00
10:35 AM,30.2,18.3,61,29.95,10.0,SSW,10.4,-,N/A,,Overcast,200,2014-01-16 16:35:00
10:55 AM,30.7,17.8,59,29.93,10.0,SSW,11.5,17.3,N/A,,Overcast,200,2014-01-16 16:55:00
11:15 AM,30.6,17.6,59,29.91,10.0,SSE,6.9,-,N/A,,Overcast,160,2014-01-16 17:15:00
11:35 AM,31.5,17.2,56,29.88,10.0,South,13.8,-,N/A,,Overcast,190,2014-01-16 17:35:00
11:55 AM,32.7,17.1,53,29.85,10.0,South,11.5,17.3,N/A,,Scattered Clouds,170,2014-01-16 17:55:00
12:15 PM,33.4,16.9,51,29.84,10.0,South,9.2,18.4,N/A,,Scattered Clouds,190,2014-01-16 18:15:00
12:35 PM,34.0,16.9,50,29.84,10.0,SSW,9.2,18.4,N/A,,Mostly Cloudy,210,2014-01-16 18:35:00
12:55 PM,35.1,17.8,49,29.82,10.0,South,11.5,18.4,N/A,,Overcast,190,2014-01-16 18:55:00
1:15 PM,36.3,18.1,48,29.81,10.0,South,10.4,16.1,N/A,,Overcast,190,2014-01-16 19:15:00
1:35 PM,36.3,18.3,48,29.81,10.0,SSW,9.2,-,N/A,,Overcast,200,2014-01-16 19:35:00
1:55 PM,36.9,19.2,49,29.80,10.0,SSW,9.2,-,N/A,,Overcast,200,2014-01-16 19:55:00
2:35 PM,38.8,20.3,47,29.79,10.0,SSW,6.9,-,N/A,,Mostly Cloudy,200,2014-01-16 20:35:00
2:55 PM,39.9,21.2,47,29.78,10.0,SSW,10.4,-,N/A,,Mostly Cloudy,210,2014-01-16 20:55:00
3:15 PM,41.2,21.2,45,29.79,10.0,SW,13.8,19.6,N/A,,Mostly Cloudy,220,2014-01-16 21:15:00
3:35 PM,41.4,21.0,44,29.80,10.0,SW,10.4,18.4,N/A,,Overcast,220,2014-01-16 21:35:00
3:55 PM,41.0,21.2,45,29.79,10.0,SSW,10.4,16.1,N/A,,Overcast,210,2014-01-16 21:55:00
4:15 PM,41.0,21.7,46,29.81,10.0,SW,8.1,-,N/A,,Mostly Cloudy,220,2014-01-16 22:15:00
4:35 PM,39.7,22.3,50,29.81,10.0,SW,5.8,-,N/A,,Mostly Cloudy,220,2014-01-16 22:35:00
4:55 PM,39.2,22.8,52,29.83,10.0,SW,8.1,-,N/A,,Overcast,230,2014-01-16 22:55:00
5:15 PM,39.9,23.2,51,29.84,10.0,WSW,8.1,-,N/A,,Overcast,240,2014-01-16 23:15:00
5:35 PM,40.1,23.7,52,29.85,10.0,WSW,17.3,25.3,N/A,Rain,Light Rain,240,2014-01-16 23:35:00
5:55 PM,40.5,26.2,57,29.86,10.0,West,15.0,19.6,N/A,,Overcast,260,2014-01-16 23:55:00
6:15 PM,40.1,28.2,63,29.87,10.0,WSW,11.5,17.3,N/A,,Overcast,240,2014-01-17 00:15:00
6:35 PM,39.9,29.1,65,29.88,10.0,WSW,18.4,23.0,N/A,,Overcast,250,2014-01-17 00:35:00
6:55 PM,39.9,28.9,65,29.87,10.0,WNW,4.6,-,N/A,,Overcast,290,2014-01-17 00:55:00
7:15 PM,39.0,28.9,67,29.87,10.0,West,4.6,-,N/A,,Overcast,280,2014-01-17 01:15:00
7:35 PM,38.5,29.3,70,29.88,10.0,Calm,Calm,-,N/A,,Overcast,0,2014-01-17 01:35:00
7:55 PM,37.6,29.3,72,29.88,10.0,Calm,Calm,-,N/A,,Overcast,0,2014-01-17 01:55:00
8:15 PM,37.4,29.5,73,29.88,10.0,Calm,Calm,-,N/A,,Overcast,0,2014-01-17 02:15:00
8:35 PM,36.9,30.0,76,29.89,10.0,Calm,Calm,-,N/A,,Overcast,0,2014-01-17 02:35:00
8:55 PM,36.0,30.4,80,29.89,10.0,Calm,Calm,-,N/A,,Overcast,0,2014-01-17 02:55:00
9:15 PM,36.0,30.2,80,29.88,10.0,Calm,Calm,-,N/A,,Overcast,0,2014-01-17 03:15:00
9:35 PM,36.3,30.2,78,29.88,10.0,West,6.9,-,N/A,,Drizzle,270,2014-01-17 03:35:00
9:55 PM,36.7,30.7,79,29.89,10.0,Calm,Calm,-,N/A,Rain,Light Rain,0,2014-01-17 03:55:00
10:15 PM,36.1,31.8,84,29.88,7.0,Calm,Calm,-,0.01,Rain,Light Rain,0,2014-01-17 04:15:00
10:35 PM,35.2,32.5,90,29.87,10.0,South,3.5,-,0.02,Rain,Light Rain,190,2014-01-17 04:35:00
10:55 PM,34.7,34.5,99,29.87,10.0,Calm,Calm,-,0.02,,Overcast,0,2014-01-17 04:55:00
11:15 PM,34.7,34.7,100,29.86,10.0,South,4.6,-,N/A,,Overcast,180,2014-01-17 05:15:00
11:35 PM,34.7,34.7,100,29.84,10.0,South,5.8,-,N/A,,Overcast,170,2014-01-17 05:35:00
11:55 PM,34.7,34.7,100,29.84,10.0,South,3.5,-,N/A,,Scattered Clouds,180,2014-01-17 05:55:00